FW9743 Weather Reports


time (UTC)temp
C
wind
direction
speed
KPH
gust
KPH
rain 1hr
cm
rain 24hr
cm
rain mn
cm
humidity
%
barometer
mb
20260508014556 13 0 0.0 0.0 0.00 0.00 0.00 89 1014.7
20260508013106 13 0 0.0 3.2 0.00 0.00 0.00 88 1014.7
20260508011554 13 0 0.0 3.2 0.00 0.00 0.00 88 1014.7
20260508010046 14 0 0.0 3.2 0.00 0.00 0.00 88 1014.6
20260508004551 14 0 0.0 0.0 0.00 0.00 0.00 88 1014.6
20260508003050 14 0 0.0 3.2 0.00 0.00 0.00 88 1014.6
20260508001555 13 0 0.0 0.0 0.00 0.00 0.00 90 1014.7
20260508000055 13 0 0.0 0.0 0.00 0.00 0.00 88 1014.7
20260507234545 13 0 0.0 0.0 0.00 0.00 0.00 88 1014.7
20260507233046 14 0 0.0 0.0 0.00 0.00 0.00 87 1014.9
20260507231550 14 0 0.0 0.0 0.00 0.00 0.00 87 1014.9
20260507230052 15 0 0.0 0.0 0.00 0.00 0.00 86 1014.8
20260507224551 15 0 0.0 0.0 0.00 0.00 0.00 86 1015.0
20260507223048 15 0 0.0 0.0 0.00 0.00 0.00 86 1015.0
20260507221544 15 0 0.0 0.0 0.00 0.00 0.00 87 1015.0
20260507220051 15 0 0.0 6.4 0.00 0.00 0.00 86 1014.9
20260507214548 15 0 0.0 0.0 0.00 0.00 0.00 87 1014.8
20260507213054 15 0 0.0 0.0 0.00 0.00 0.00 88 1014.8
20260507211553 15 0 0.0 0.0 0.00 0.00 0.00 89 1014.7
20260507210046 15 0 0.0 0.0 0.00 0.00 0.00 89 1014.7
20260507204549 15 0 0.0 0.0 0.00 0.00 0.00 88 1014.7
20260507203044 15 0 0.0 3.2 0.00 0.00 0.00 87 1014.5
20260507201550 15 217 0.0 4.8 0.00 0.00 0.00 88 1014.4
20260507200046 15 0 0.0 0.0 0.00 0.00 0.00 85 1014.3
20260507194551 16 0 0.0 0.0 0.00 0.00 0.00 85 1014.2
20260507193045 16 0 0.0 4.8 0.00 0.00 0.00 84 1014.1
20260507191544 16 195 3.2 4.8 0.00 0.00 0.00 83 1014.1
20260507190051 17 0 0.0 3.2 0.00 0.00 0.00 81 1014.0
20260507184548 17 238 1.6 6.4 0.00 0.00 0.00 80 1014.0
20260507183055 17 247 3.2 8.0 0.00 0.00 0.00 80 1014.0
20260507181548 17 211 6.4 17.7 0.00 0.00 0.00 78 1014.1
20260507180053 18 213 6.4 16.1 0.00 0.00 0.00 74 1014.0
20260507174549 18 200 4.8 11.3 0.00 0.00 0.00 73 1013.8
20260507173058 18 201 1.6 8.0 0.00 0.00 0.00 72 1013.5
20260507171556 19 253 3.2 12.9 0.00 0.00 0.00 70 1013.4
20260507170052 20 277 4.8 11.3 0.00 0.00 0.00 65 1013.4
20260507164550 20 263 3.2 14.5 0.00 0.00 0.00 62 1013.3
20260507163056 20 217 6.4 14.5 0.00 0.00 0.00 61 1013.1
20260507161555 21 248 8.0 17.7 0.00 0.00 0.00 60 1013.0
20260507160051 21 273 6.4 16.1 0.00 0.00 0.00 60 1012.9
20260507154555 21 224 6.4 22.5 0.00 0.00 0.00 60 1013.1
20260507153105 22 275 8.0 16.1 0.00 0.00 0.00 58 1012.9
20260507151551 21 213 6.4 17.7 0.00 0.00 0.00 60 1012.9
20260507150058 22 229 4.8 11.3 0.00 0.00 0.00 61 1012.9
20260507144553 21 279 3.2 12.9 0.00 0.00 0.00 62 1013.1
20260507143104 -17 9.7 14.5 0.00 0.00 0.00 62 1013.1
20260507141549 -17 0.0 0.0 0.00 0.00 0.00 1013.2
20260507140056 -17 0.0 0.0 0.00 0.00 0.00 1013.3
20260507134555 -17 0.0 0.0 0.00 0.00 0.00 1013.4
20260507133056 -17 0.0 0.0 0.00 0.00 0.00 1013.5
20260507131551 22 185 1.6 4.8 0.00 0.00 0.00 55 1013.5
20260507124555 21 211 1.6 14.5 0.00 0.00 0.00 56 1013.6
20260507123051 21 153 6.4 9.7 0.00 0.00 0.00 56 1014.0
20260507121555 19 8.0 11.3 0.00 0.00 0.00 58 1013.9
20260507120052 19 161 8.0 17.7 0.00 0.00 0.00 58 1014.1
20260507114550 -17 9.7 0.0 0.00 0.00 0.00 1014.0
20260507113052 -17 0.0 0.0 0.00 0.00 0.00 1014.1
20260507111544 -17 0.0 0.0 0.00 0.00 0.00 1014.0
20260507110058 -17 0.0 0.0 0.00 0.00 0.00 1014.2
20260507104552 -17 198 3.2 3.2 0.00 0.00 0.00 1014.2
20260507103114 -17 0.0 0.0 0.00 0.00 0.00 1014.3
20260507101546 20 107 8.0 16.1 0.00 0.00 0.00 63 1014.2
20260507100103 20 179 3.2 14.5 0.00 0.00 0.00 61 1014.4
20260507094551 -17 159 9.7 9.7 0.00 0.00 0.00 1014.4
20260507093050 -17 0.0 0.0 0.00 0.00 0.00 1014.5
20260507091549 18 138 4.8 12.9 0.00 0.00 0.00 69 1014.4
20260507090057 18 142 11.3 16.1 0.00 0.00 0.00 72 1014.4
20260507084603 17 103 9.7 14.5 0.00 0.00 0.00 75 1014.3
20260507083052 17 6.4 6.4 0.00 0.00 0.00 76 1014.4
20260507081559 17 142 9.7 11.3 0.00 0.00 0.00 75 1014.5
20260507080057 17 157 8.0 17.7 0.00 0.00 0.00 75 1014.5
20260507074552 17 144 9.7 16.1 0.00 0.00 0.00 76 1014.4
20260507073051 17 146 8.0 11.3 0.00 0.00 0.00 77 1014.3
20260507071550 17 157 8.0 14.5 0.00 0.00 0.00 77 1014.4
20260507070103 17 165 4.8 11.3 0.00 0.00 0.00 78 1014.3
20260507064555 17 111 1.6 6.4 0.00 0.00 0.00 81 1014.2
20260507063051 16 157 0.0 4.8 0.00 0.00 0.00 83 1014.3
20260507061547 16 0 0.0 3.2 0.00 0.00 0.00 86 1014.3
20260507060045 16 159 3.2 24.1 0.00 0.00 0.00 86 1014.3
20260507054605 16 0 0.0 4.8 0.00 0.00 0.00 84 1014.0
20260507053058 16 0 0.0 4.8 0.00 0.00 0.00 83 1013.8
20260507051556 16 233 0.0 6.4 0.00 0.00 0.00 86 1013.7
20260507050053 16 240 1.6 6.4 0.00 0.00 0.00 89 1013.8
20260507044556 15 172 3.2 9.7 0.00 0.00 0.00 89 1013.5
20260507043052 15 182 3.2 9.7 0.00 0.00 0.00 88 1013.6
20260507041601 15 167 4.8 12.9 0.00 0.00 0.00 88 1013.5
20260507040053 15 155 4.8 9.7 0.00 0.00 0.00 86 1013.1
20260507034545 15 0 0.0 3.2 0.00 0.00 0.00 86 1012.9
20260507033048 15 0 0.0 1.6 0.00 0.00 0.00 86 1012.9
20260507031554 16 0 1.6 8.0 0.00 0.00 0.00 85 1012.8
20260507030051 16 0 0.0 4.8 0.00 0.00 0.00 85 1012.6
20260507024553 16 196 1.6 4.8 0.00 0.00 0.00 84 1012.6
20260507023051 16 0 1.6 4.8 0.00 0.00 0.00 83 1012.3
20260507021600 16 234 1.6 6.4 0.00 0.00 0.00 83 1012.1
20260507020107 16 243 1.6 9.7 0.00 0.00 0.00 82 1012.1